Theta_e
344 345 344 345 345 345 345 345 345 345 345 345 346 347 348 347 347 347 347 345 346 345 344 345 345 343 343 343 341 344 342 341 343
346 346 346 346 346 346 346 346 344 346 346 346 346 346 347 346 347 346 347 346 345 344 344 345 346 345 344 344 344 341 341 343 344
343 343 342 341 339 342 345 347 346 347 348 347 347 347 347 342 335 341 346 347 346 344 344 345 346 346 345 345 346 346 343 341 343
346 345 346 347 347 346 346 348 346 347 348 346 347 343 349 347 340 334 334 346 347 347 346 343 345 346 345 344 345 345 346 344 345
345 343 342 340 337 334 332 336 340 347 350 348 348 341 343 338 334 335 339 347 348 348 347 348 343 343 345 345 343 346 346 347 346
343 341 338 337 336 335 333 333 335 336 345 349 348 340 338 342 345 344 345 341 342 344 342 348 348 348 347 345 345 345 344 345 346
339 337 335 334 332 332 331 330 329 328 330 338 340 342 341 339 336 337 342 345 347 348 343 349 349 349 349 349 346 346 346 344 344
336 334 333 332 332 331 330 329 329 328 327 326 327 327 327 327 327 327 327 328 336 345 346 345 345 350 349 350 349 345 345 346 346
334 332 330 330 329 330 331 330 329 328 327 327 325 326 326 327 327 327 327 327 328 328 331 338 344 348 349 348 343 346 346 346 346
328 327 328 328 327 327 327 327 328 328 329 329 328 327 327 327 328 328 328 328 329 330 329 328 336 341 336 341 341 341 344 344 347
327 327 327 326 326 325 325 326 326 327 327 327 328 328 329 329 329 329 329 328 330 332 331 329 328 335 341 341 338 336 331 334 336
326 325 324 324 324 324 324 324 325 325 324 324 325 327 327 327 326 326 326 328 328 331 332 332 329 327 340 341 346 341 337 332 331
325 325 325 325 325 324 324 324 324 325 325 325 325 325 325 326 326 325 324 325 328 327 331 333 331 328 330 341 337 340 334 333 330
325 325 325 326 325 325 325 325 324 326 326 326 325 327 328 327 325 324 325 325 325 326 327 331 332 330 327 332 341 338 340 339 331
324 324 326 325 326 326 325 325 325 326 326 325 326 326 327 325 324 325 325 324 325 325 325 327 331 332 330 329 335 342 341 335 329
325 325 325 326 326 326 325 325 325 326 326 325 325 326 326 324 324 322 322 324 324 324 326 328 328 330 331 329 328 333 338 339 334
324 324 324 324 325 324 323 322 322 321 322 326 326 325 324 324 323 323 323 321 324 324 326 327 327 327 328 328 327 329 337 340 341
325 325 325 324 322 322 322 322 321 321 322 323 324 324 323 322 322 322 322 322 321 322 326 327 327 328 329 329 328 329 339 340 337
325 324 322 321 322 321 321 321 322 321 321 322 322 322 322 323 323 323 323 323 323 323 325 327 326 327 329 330 330 331 333 337 335
321 321 321 321 321 320 320 321 322 322 324 324 323 323 323 324 324 324 324 323 324 325 324 325 326 327 327 329 330 329 332 335 335
Wind_Speed
14 18 18 14 12 12 11 13 12 16 18 18 20 23 24 24 26 26 26 23 24 23 24 25 20 23 23 22 23 21 20 22 21
17 18 18 17 16 14 14 11 10 10 10 14 17 20 20 23 26 25 29 30 26 27 26 24 24 24 25 25 23 25 25 25 24
20 18 14 9 4 3 3 6 7 7 10 12 10 13 19 19 27 34 32 33 33 29 29 29 26 26 27 27 28 26 26 29 27
19 19 19 17 15 16 18 14 9 6 3 4 4 8 15 21 20 19 32 30 36 32 29 29 29 29 29 29 30 30 30 30 29
18 21 21 19 18 20 23 21 17 11 3 6 8 9 7 10 13 22 20 26 27 29 30 29 30 30 31 31 33 32 32 34 34
15 16 15 15 15 16 16 15 14 14 3 11 16 10 9 11 11 18 18 24 27 30 32 31 30 31 33 34 33 34 35 35 35
14 13 12 9 10 10 10 10 10 12 12 10 5 9 10 15 16 18 22 25 27 26 29 29 28 31 28 33 35 34 33 35 36
12 10 9 7 5 4 4 6 9 13 15 16 13 12 14 15 18 21 22 23 24 22 19 25 33 30 27 23 30 35 34 34 34
8 7 4 3 3 0 3 4 5 9 13 17 21 22 21 19 20 21 22 23 22 21 19 21 23 29 25 15 22 35 36 34 33
13 11 9 6 4 6 8 9 9 11 12 15 19 24 26 27 26 23 22 23 21 20 19 17 15 16 29 33 10 9 10 17 27
8 3 4 8 12 15 16 19 22 22 22 23 23 26 27 28 28 28 25 22 20 19 20 18 17 16 15 22 37 33 57 47 25
3 6 8 11 11 11 15 17 17 20 25 30 31 30 31 31 30 29 29 27 23 21 20 17 18 16 18 19 29 40 35 37 36
9 11 14 16 16 17 19 19 21 27 30 29 30 28 25 25 28 32 34 29 26 26 22 17 17 18 17 18 16 20 25 29 29
16 19 20 17 19 21 22 25 27 30 30 28 27 29 29 33 36 37 31 31 30 30 29 24 18 19 19 19 17 13 17 24 26
22 22 19 22 24 26 29 31 29 29 29 30 28 27 31 37 35 34 35 32 30 26 26 26 24 21 22 21 17 21 23 25 29
22 23 26 27 30 34 34 33 30 31 33 30 30 30 33 35 36 35 34 33 30 28 25 28 29 26 25 23 21 22 26 33 33
26 28 31 30 30 34 39 38 38 37 37 30 28 33 33 33 34 36 35 34 32 28 24 26 29 29 33 31 25 25 24 24 26
29 27 29 33 35 34 33 34 33 31 28 29 30 30 33 36 36 35 36 35 33 30 25 23 26 26 28 28 27 26 22 21 25
26 31 35 35 30 27 30 28 28 26 24 24 26 29 31 31 31 32 33 33 33 28 24 23 25 26 28 29 30 25 24 24 25
33 30 29 24 23 26 25 26 25 25 23 19 21 25 29 31 31 33 34 34 32 30 25 22 23 26 28 31 32 27 24 24 23
Wind_Direction
143 158 164 175 194 204 225 234 238 239 247 256 257 257 260 261 264 265 267 268 267 255 252 256 250 239 238 241 241 242 240 239 243
100 124 137 144 144 170 202 225 235 259 251 250 258 260 251 261 275 274 274 268 268 265 253 253 251 248 246 247 245 245 243 243 248
85 92 116 125 107 17 290 294 328 260 242 258 246 257 263 253 287 273 266 271 263 259 259 252 251 249 248 246 247 247 247 247 248
87 89 87 79 65 53 48 43 23 45 219 241 232 267 251 266 273 307 274 275 271 262 253 253 254 252 250 248 245 246 250 250 252
99 93 88 80 67 56 51 52 51 49 256 247 189 179 195 286 291 292 287 280 275 275 272 257 251 253 253 253 249 246 247 250 251
109 98 85 73 64 54 50 45 45 45 24 248 252 253 274 312 310 308 310 293 291 289 275 269 263 247 251 254 250 250 247 245 248
121 106 90 68 57 52 46 45 44 37 32 29 347 310 326 328 332 325 322 315 301 302 269 263 262 267 259 256 258 254 255 249 244
134 116 107 96 82 68 46 26 12 4 350 348 340 329 326 327 325 325 325 328 324 315 308 281 266 266 264 269 265 261 257 256 254
142 123 112 110 103 117 260 292 327 328 318 315 313 311 310 309 311 313 313 315 323 325 322 321 306 271 252 251 297 277 259 258 263
127 116 104 81 32 355 340 327 314 294 286 280 290 293 297 300 302 302 304 307 306 313 323 330 326 292 256 256 256 284 248 271 251
120 89 349 323 313 303 293 288 287 289 293 292 290 288 289 291 293 295 300 304 298 299 310 317 319 311 289 245 238 254 302 299 295
272 292 301 305 303 301 312 307 292 291 294 289 286 284 288 290 290 292 293 293 293 294 293 305 309 310 301 276 261 248 243 268 276
279 291 298 297 299 299 303 302 297 294 294 286 281 285 285 290 293 298 294 288 289 287 289 282 294 294 290 286 277 252 227 231 241
289 292 290 288 294 295 294 299 298 288 288 282 285 285 282 290 294 294 291 287 286 280 277 275 270 281 278 278 277 256 242 220 229
295 295 289 296 297 297 298 301 298 289 284 284 284 280 281 289 290 288 288 289 287 288 276 264 262 262 267 264 260 253 243 224 238
298 295 297 299 300 300 301 301 300 292 285 286 282 279 285 290 289 288 286 285 286 285 276 264 260 255 255 261 257 254 252 233 231
301 300 298 299 301 302 302 303 302 296 287 284 282 286 288 289 288 289 289 286 281 288 276 267 262 258 254 260 266 263 256 246 241
301 300 300 302 304 304 303 305 305 310 303 290 285 286 288 289 290 290 286 284 283 280 277 267 265 256 251 252 258 252 257 249 257
297 301 303 304 304 306 309 309 310 315 312 303 295 292 291 292 293 291 288 288 287 277 272 266 262 253 251 246 253 257 257 253 260
302 306 307 303 307 313 313 313 313 318 315 306 304 299 295 293 293 293 290 286 281 279 275 269 263 251 248 247 250 254 259 260 261